DECAYED

CZ-6A DEB, 61353 (Decayed)

Orbit data source: Space-Track

CZ-6A DEB, 61353 was space debris in LEO originally from a launch on Tue, 06 Aug 2024 UTC launched from the Taiyaun Space Center, China (TSC). Debris objects in space refer to the collection of defunct objects orbiting the Earth. Examples of debris include non-operational satellites, rocket bodies, and fragments generated from explosions, collisions, or faulty payload assembly.

Not visible in the next 10 days
Identifier
61353, 2024-140VS
Orbit
Decayed
Country
Flag of CNCN / PRC
Related business
Manufacturer
SAST
Mission
Decayed spacecraft
Bus & Motor
Unknown
Mass
Unknown
Launch date (UTC)
2024-08-06 (1 year ago)
Launch vehicle
Unknown
Launch site
Taiyaun Space Center, China (TSC)
Object type
Payload
Rocket body
Debris
Shape & HBR
Unknown shape, 0.1 m
Radar Cross Section
Small (<0.1 m²)

Expand to show TLE details & history
Last TLE update: 7 months ago

TLE from 7 months ago
0 CZ-6A DEB
1 61353U 24140VS  25137.07294552  .08552266  10982+0  40279-1 0  9997
2 61353  88.9124 316.7317 0027983 280.4572  79.3557 15.87946649 37822
Epoch: 2025-05-17T01:45Z
TLE epoch observation values (Epoch: 2025-05-17T01:45:02.492Z)
Latitude
-0.00006°
Longitude
55.45181°
Altitude
307.924 km
Speed
7.725 km/s
True Right ascension
21h 06m 55s
True Declination
0° 00' 00"
Sunlit
Object was in daylight at epoch
Visualization orbit readout
Latitude
Unknown
Longitude
Unknown
Altitude
Unknown
Speed
Unknown
Apparent Right ascension
Unknown
Apparent Declination
Unknown
Sunlit
N/A
Visualization observer readout
Local Sidereal Time
10:53:13
Azimuth
Unknown
Elevation
Unknown
Doppler factor
Unknown
Orbital elements
Apogee altitude
323.457 km
Perigee altitude
286.055 km
Semi-major axis
6,682.893 km
Eccentricity
0.0028
Inclination
88.9124°
RAAN
316.7317°
Arg. of periapsis
280.4572°
True anomaly
79.67105°
Mean anomaly
79.3557°
Eccentric anomaly
79.51335°
Mean motion
3.9728 °/min
Orbital period
90.62 mins
BSTAR
0.040279
Loading maneuver chart data...
Computing Atmospheric mass density...
Loading historical data...
Loading historical data...
Loading historical data...
Loading historical data...
Loading historical data...
Loading historical data...
Loading historical data...

Documentation

Showing up to 5 results
|